• In Netherlands
  • List of Countries
  • For 7 days
  • Water Temperature
  • Satellite Maps
  • Weather Map
  • Weather Widgets
  • user-avatar
    Login

    Hourly Weather Wiktoria

    Today, 25 April, Tuesday

    Time Temperature Precipitation Wind Pressure Humidity
    00:00 +16°C° 0.8 mm 1 mps 747 mmHg 90%
    01:00 +16°C° 0.8 mm 1 mps 747 mmHg 94%
    02:00 +16°C° 2.3 mm 1 mps 746 mmHg 96%
    03:00 +16°C° 2.3 mm 1 mps 746 mmHg 97%
    04:00 +18°C° 0 mm 1 mps 745 mmHg 99%
    05:00 +18°C° 1 mm 1 mps 745 mmHg 99%
    06:00 +18°C° 1 mm 1 mps 745 mmHg 98%
    07:00 +18°C° 1 mm 1 mps 745 mmHg 98%
    08:00 +18°C° 0.2 mm 1 mps 745 mmHg 95%
    09:00 +19°C° 0.2 mm 1 mps 745 mmHg 92%
    10:00 +19°C° 0 mm 1 mps 745 mmHg 88%
    11:00 +20°C° 0.5 mm 1 mps 744 mmHg 86%
    12:00 +19°C° 0.5 mm 2 mps 744 mmHg 83%
    13:00 +20°C° 0.5 mm 2 mps 744 mmHg 80%
    14:00 +19°C° 0.5 mm 2 mps 743 mmHg 81%
    15:00 +20°C° 0.5 mm 1 mps 743 mmHg 82%
    16:00 +18°C° 0 mm 2 mps 743 mmHg 81%
    17:00 +18°C° 0.2 mm 1 mps 743 mmHg 86%
    18:00 +15°C° 0.2 mm 1 mps 744 mmHg 91%
    19:00 +14°C° 0.2 mm 1 mps 744 mmHg 96%
    20:00 +14°C° 0.1 mm 1 mps 744 mmHg 97%
    21:00 +13°C° 0.1 mm 1 mps 744 mmHg 97%
    22:00 +13°C° 0.1 mm 1 mps 744 mmHg 98%
    23:00 +13°C° 0.1 mm 1 mps 744 mmHg 98%

    Tomorrow, 26 April, Wednesday

    Time Temperature Precipitation Wind Pressure Humidity
    00:00 +13°C° 0.1 mm 1 mps 743 mmHg 98%
    01:00 +13°C° 0.1 mm 1 mps 743 mmHg 98%
    02:00 +13°C° 0.2 mm 1 mps 743 mmHg 97%
    03:00 +13°C° 0.2 mm 1 mps 743 mmHg 96%
    04:00 +13°C° 0.2 mm 1 mps 743 mmHg 96%
    05:00 +12°C° 0.5 mm 2 mps 743 mmHg 95%
    06:00 +12°C° 0.5 mm 2 mps 744 mmHg 95%
    07:00 +12°C° 0.5 mm 2 mps 744 mmHg 95%
    08:00 +11°C° 0.3 mm 3 mps 745 mmHg 92%
    09:00 +10°C° 0.3 mm 3 mps 746 mmHg 89%
    10:00 +10°C° 0.3 mm 3 mps 746 mmHg 86%
    11:00 +11°C° 0.1 mm 3 mps 747 mmHg 77%
    12:00 +11°C° 0.1 mm 3 mps 747 mmHg 68%
    13:00 +12°C° 0.1 mm 4 mps 747 mmHg 59%
    14:00 +12°C° 0.1 mm 3 mps 748 mmHg 59%
    15:00 +11°C° 0.1 mm 3 mps 748 mmHg 60%
    16:00 +11°C° 0.1 mm 3 mps 749 mmHg 60%
    17:00 +10°C° 0 mm 3 mps 749 mmHg 65%
    18:00 +9°C° 0 mm 2 mps 750 mmHg 69%
    19:00 +8°C° 0 mm 1 mps 751 mmHg 74%
    20:00 +8°C° 0 mm 1 mps 751 mmHg 76%
    21:00 +8°C° 0 mm 1 mps 752 mmHg 77%
    22:00 +7°C° 0 mm 1 mps 752 mmHg 79%
    23:00 +7°C° 0 mm 1 mps 752 mmHg 80%

    Day after tomorrow, 27 April, Thursday

    Time Temperature Precipitation Wind Pressure Humidity
    00:00 +7°C° 0 mm 1 mps 753 mmHg 81%
    01:00 +6°C° 0 mm 2 mps 753 mmHg 82%
    02:00 +6°C° 0 mm 2 mps 753 mmHg 83%
    03:00 +6°C° 0 mm 2 mps 753 mmHg 84%
    04:00 +6°C° 0 mm 2 mps 753 mmHg 84%
    05:00 +7°C° 0 mm 1 mps 753 mmHg 85%
    06:00 +7°C° 0 mm 1 mps 754 mmHg 85%
    07:00 +7°C° 0 mm 1 mps 754 mmHg 86%
    08:00 +8°C° 0 mm 2 mps 754 mmHg 79%
    09:00 +9°C° 0 mm 2 mps 755 mmHg 72%
    10:00 +11°C° 0 mm 3 mps 755 mmHg 66%
    11:00 +11°C° 0 mm 3 mps 755 mmHg 64%
    12:00 +12°C° 0 mm 3 mps 755 mmHg 62%
    13:00 +12°C° 0 mm 3 mps 755 mmHg 59%
    14:00 +13°C° 0 mm 2 mps 755 mmHg 62%
    15:00 +13°C° 0 mm 2 mps 755 mmHg 65%
    16:00 +12°C° 0 mm 2 mps 755 mmHg 68%
    17:00 +10°C° 0 mm 2 mps 755 mmHg 73%
    18:00 +10°C° 0 mm 1 mps 756 mmHg 78%
    19:00 +9°C° 0 mm 1 mps 756 mmHg 84%
    20:00 +9°C° 0 mm 1 mps 756 mmHg 86%
    21:00 +8°C° 0 mm 1 mps 757 mmHg 88%
    22:00 +8°C° 0 mm 1 mps 757 mmHg 90%
    23:00 +8°C° 0 mm 1 mps 757 mmHg 92%

    28 April, Friday

    Time Temperature Precipitation Wind Pressure Humidity
    00:00 +7°C° 0 mm 1 mps 757 mmHg 93%
    01:00 +7°C° 0 mm 1 mps 757 mmHg 95%
    02:00 +7°C° 0 mm 1 mps 756 mmHg 96%
    03:00 +7°C° 0 mm 1 mps 756 mmHg 97%
    04:00 +6°C° 0 mm 1 mps 756 mmHg 98%
    05:00 +6°C° 0 mm 1 mps 757 mmHg 99%
    06:00 +6°C° 0 mm 1 mps 757 mmHg 99%
    07:00 +5°C° 0 mm 0 mps 757 mmHg 99%
    08:00 +8°C° 0 mm 1 mps 757 mmHg 90%
    09:00 +11°C° 0 mm 1 mps 757 mmHg 81%
    10:00 +14°C° 0 mm 1 mps 758 mmHg 72%
    11:00 +15°C° 0 mm 1 mps 757 mmHg 69%
    12:00 +16°C° 0 mm 1 mps 757 mmHg 67%
    13:00 +18°C° 0 mm 1 mps 756 mmHg 65%
    14:00 +18°C° 0 mm 1 mps 756 mmHg 67%
    15:00 +18°C° 0 mm 1 mps 755 mmHg 69%
    16:00 +18°C° 0 mm 1 mps 755 mmHg 72%
    17:00 +15°C° 0 mm 1 mps 755 mmHg 78%
    18:00 +14°C° 0 mm 1 mps 755 mmHg 84%
    19:00 +13°C° 0 mm 1 mps 756 mmHg 90%
    20:00 +13°C° 0 mm 1 mps 756 mmHg 92%
    21:00 +12°C° 0 mm 1 mps 756 mmHg 94%
    22:00 +12°C° 0 mm 1 mps 756 mmHg 97%
    23:00 +11°C° 0 mm 1 mps 755 mmHg 97%

    29 April, Saturday

    Time Temperature Precipitation Wind Pressure Humidity
    00:00 +11°C° 0 mm 1 mps 755 mmHg 98%
    01:00 +10°C° 0 mm 1 mps 755 mmHg 98%
    02:00 +10°C° 0 mm 1 mps 755 mmHg 98%
    03:00 +10°C° 0 mm 1 mps 755 mmHg 98%
    04:00 +11°C° 0 mm 1 mps 754 mmHg 98%
    05:00 +11°C° 0 mm 1 mps 754 mmHg 98%
    06:00 +11°C° 0 mm 1 mps 755 mmHg 98%
    07:00 +11°C° 0 mm 1 mps 755 mmHg 98%
    08:00 +12°C° 0 mm 1 mps 755 mmHg 93%
    09:00 +14°C° 0 mm 1 mps 755 mmHg 88%
    10:00 +15°C° 0 mm 1 mps 755 mmHg 82%
    11:00 +16°C° 0.1 mm 2 mps 755 mmHg 81%
    12:00 +16°C° 0.1 mm 2 mps 755 mmHg 79%
    13:00 +16°C° 0.1 mm 2 mps 755 mmHg 78%
    14:00 +17°C° 0.1 mm 2 mps 755 mmHg 73%
    15:00 +17°C° 0.1 mm 2 mps 755 mmHg 69%
    16:00 +17°C° 0.1 mm 2 mps 754 mmHg 65%
    17:00 +15°C° 0 mm 2 mps 755 mmHg 71%
    18:00 +13°C° 0 mm 2 mps 755 mmHg 77%
    19:00 +12°C° 0 mm 1 mps 756 mmHg 83%
    20:00 +11°C° 0 mm 1 mps 756 mmHg 86%
    21:00 +10°C° 0 mm 1 mps 756 mmHg 89%
    22:00 +10°C° 0 mm 1 mps 756 mmHg 91%
    23:00 +9°C° 0 mm 1 mps 756 mmHg 93%

    30 April, Sunday

    Time Temperature Precipitation Wind Pressure Humidity
    00:00 +9°C° 0 mm 1 mps 756 mmHg 95%
    01:00 +8°C° 0 mm 1 mps 756 mmHg 96%
    02:00 +8°C° 0 mm 1 mps 756 mmHg 97%
    03:00 +8°C° 0 mm 1 mps 756 mmHg 97%
    04:00 +8°C° 0 mm 1 mps 755 mmHg 97%
    05:00 +7°C° 0 mm 1 mps 756 mmHg 97%
    06:00 +7°C° 0 mm 1 mps 756 mmHg 98%
    07:00 +6°C° 0 mm 1 mps 756 mmHg 98%
    08:00 +9°C° 0 mm 1 mps 756 mmHg 85%
    09:00 +11°C° 0 mm 0 mps 756 mmHg 72%
    10:00 +14°C° 0 mm 0 mps 756 mmHg 59%
    11:00 +16°C° 0 mm 1 mps 755 mmHg 54%
    12:00 +18°C° 0 mm 1 mps 755 mmHg 49%
    13:00 +20°C° 0 mm 1 mps 754 mmHg 44%
    14:00 +20°C° 0 mm 1 mps 753 mmHg 46%
    15:00 +20°C° 0 mm 1 mps 753 mmHg 47%
    16:00 +20°C° 0 mm 1 mps 753 mmHg 48%
    17:00 +16°C° 0 mm 1 mps 753 mmHg 58%
    18:00 +14°C° 0 mm 1 mps 753 mmHg 69%
    19:00 +11°C° 0 mm 1 mps 753 mmHg 79%
    20:00 +11°C° 0 mm 1 mps 753 mmHg 80%
    21:00 +10°C° 0 mm 1 mps 753 mmHg 82%
    22:00 +10°C° 0 mm 1 mps 753 mmHg 83%
    23:00 +9°C° 0 mm 1 mps 752 mmHg 85%
    Show more